Terminal Aerodrome Forecast
Issued by NWS Sterling, VA

Current Version | Previous Version | Graphics & Text | Print | Product List | Glossary On
Versions: 1 2 3 4 5 6 7 8 9 10 11 12 13 14 15 16 17 18 19 20 21 22 23 24 25 26 27 28 29 30 31 32
000
FTUS41 KLWX 020947 AAB
TAFIAD
TAF AMD
KIAD 020947Z 0210/0312 VRB03KT P6SM -SHRA SCT050 BKN130
     FM021300 02004KT P6SM SCT050 BKN080
     FM022300 10004KT P6SM SCT050 BKN100
     FM031000 04004KT 5SM BR SCT015 BKN070=

USA.gov is the U.S. government's official web portal to all federal, state and local government web resources and services.